Вернуться в каталог

DELTA 1 R/B

АктивенPO
NORAD 20323·ROCKET BODY·🇺🇸 United States

Запущен Nov 18, 1989 с Vandenberg Space Force Base

Loading…

Ближайшие Пролёты (ближайшие 24 часа)

TLE

СвежийSource: Space-Track

Эпоха: Sep 13, 2026, 23:38 UTC

1 20323U 89089B   26256.98529183  .00000205  00000-0  59585-4 0  9993
2 20323  97.0661  74.3520 0067597 246.8969 112.5095 14.50774214923035

Отслеживайте DELTA 1 R/B в реальном времени с AllMySat

Download on the App Store